Weather in Karnal

India     29°41′25″N   76°58′50″E
temp.,
°C
wind,
m/s
gust,
m/s
humid.,
%
clouds,
%
prec.,
mm/h
press.,
hPa
HPBL,
m
17 june, thu
thu1723:30+29e23610 0.0 100093
02:30+26ene12763 0.1 1000134
05:30+26ene23806 0.1 999118
08:30+31ese22550 0.0 1000714
11:30+37se223631 0.0 9992319
14:30+36sw233576 0.2 9982147
17:30+28nne796998 2.1 998207
20:30+32se36414 0.7 999170
18 june, fri
fri1823:30+29e47666 0.7 1001387
02:30+29sse3767100 0.0 999412
05:30+28ese376564 0.0 999377
08:30+31se56515 0.0 1000821
11:30+36se43375 0.0 9992114
14:30+32se10105199 0.1 998752
17:30+32se88483 0.3 998988
20:30+27se611675 0.1 1000511
19 june, sat
sat1923:30+25se512745 0.1 1001509
02:30+25sse38770 0.0 1000411
05:30+24ese37800 0.0 999314
08:30+29ese45657 0.0 1001734
11:30+34se32440 0.0 10001657
14:30+40ese14280 0.0 9972779
17:30+40n232021 0.0 9953550
20:30+30se7125564 0.0 999526
20 june, sun
sun2023:30+28se7136991 0.0 1000495
02:30+27se487435 0.0 1001565
05:30+25ese48791 0.9 1001396
08:30+29se44632 2.4 1003815
11:30+35s324388 2.4 10011592
14:30+40ese04275 0.0 9982787
17:30+40nne132139 0.0 9962903
20:30+33w484079 0.1 999383
21 june, mon
mon2123:30+32se354598 0.4 1002279
02:30+30se365911 0.3 1001462
05:30+29sse125967 0.8 100287
08:30+32se335011 0.0 1003751
11:30+37ssw22335 0.0 10021881
14:30+41wnw542310 0.0 9993194
17:30+40wnw452375 0.0 9983113
20:30+36nnw22285 0.0 99946